This is the latest recevied weather packets stored in our database for station/object HB9BB-10. If no packets are shown the sender has not sent any weather packets the latest 1 day(s).
| Time | Temp. | Humidity | Pressure | Rain* | Wind** | Luminosity | Snow |
|---|---|---|---|---|---|---|---|
| 1777791740 | 21.67° C | 20% | 1032.9 hPa | - | - | - | - |
| 1777791735 | 21.67° C | 20% | 1032.9 hPa | - | - | - | - |
| 1777790360 | 21.11° C | 20% | 1033.1 hPa | - | - | - | - |
| 1777790355 | 21.11° C | 20% | 1033.1 hPa | - | - | - | - |
| 1777788980 | 20° C | 20% | 1032.9 hPa | - | - | - | - |
| 1777788975 | 20° C | 20% | 1032.9 hPa | - | - | - | - |
| 1777787600 | 19.44° C | 20% | 1032.9 hPa | - | - | - | - |
| 1777787595 | 19.44° C | 20% | 1032.9 hPa | - | - | - | - |
| 1777786220 | 19.44° C | 20% | 1032.9 hPa | - | - | - | - |
| 1777786215 | 19.44° C | 20% | 1032.9 hPa | - | - | - | - |
| 1777784840 | 18.89° C | 21% | 1032.9 hPa | - | - | - | - |
| 1777784835 | 18.89° C | 21% | 1032.9 hPa | - | - | - | - |
| 1777783459 | 18.89° C | 20% | 1033 hPa | - | - | - | - |
| 1777783455 | 18.89° C | 20% | 1033 hPa | - | - | - | - |
| 1777782079 | 18.89° C | 21% | 1032.9 hPa | - | - | - | - |
| 1777782074 | 18.89° C | 21% | 1032.9 hPa | - | - | - | - |
| 1777780699 | 18.89° C | 21% | 1033.1 hPa | - | - | - | - |
| 1777780694 | 18.89° C | 21% | 1033.1 hPa | - | - | - | - |
| 1777779319 | 19.44° C | 21% | 1033.2 hPa | - | - | - | - |
| 1777779314 | 19.44° C | 21% | 1033.2 hPa | - | - | - | - |
| 1777777939 | 19.44° C | 21% | 1033.4 hPa | - | - | - | - |
| 1777777934 | 19.44° C | 21% | 1033.4 hPa | - | - | - | - |
| 1777776559 | 20° C | 21% | 1033.5 hPa | - | - | - | - |
| 1777776554 | 20° C | 21% | 1033.5 hPa | - | - | - | - |
| 1777775179 | 20° C | 21% | 1033.7 hPa | - | - | - | - |
* Rain since midnight (hover to see other rain measurements)
** Current wind speed in m/s (hover to see current wind gust speed)